Terug naar catalogus

XRISM

ActiefWetenschapVLEO
NORAD 57800·PAYLOAD·🇯🇵 Japan

Gelanceerd Sep 6, 2023 vanaf Tanegashima Space Center

Loading…

Volgende Passages (komende 24 uur)

TLE

VersSource: Space-Track

Epoch: Sep 14, 2026, 01:35 UTC

1 57800U 23137A   26257.06644540  .00004610  00000-0  24845-3 0  9994
2 57800  31.0013 143.5827 0007352 142.4913 217.6240 15.13107070166337

Volg XRISM in realtime met AllMySat

Download on the App Store